Location: Albany
(35.0170°S, 117.8920°E)
Time: 17:43:41
(UTC+08:00)

Vanguard 2 - All Passes

Search period start: 24 January 2021 00:00
Search period end: 03 February 2021 00:00
Orbit: 553 x 2937 km, 32.9° (Epoch: 23 January)

Date Brightness Start Highest point End Pass type
(mag) Time Alt. Az. Time Alt. Az. Time Alt. Az.
24 Jan - 01:02:45 10° N 01:14:56 30° NE 01:28:55 10° E visible
24 Jan - 03:09:38 10° NW 03:26:03 61° NNE 03:42:39 10° E visible
24 Jan - 05:20:46 10° WNW 05:38:57 82° N 05:53:39 10° E daylight
24 Jan - 07:34:13 10° W 07:51:34 76° NNW 08:03:06 10° ENE daylight
24 Jan - 09:48:35 10° W 10:01:46 42° NW 10:10:15 10° NNE daylight
25 Jan - 01:19:08 10° NNW 01:32:20 38° NE 01:47:46 10° E visible
25 Jan - 03:27:11 10° WNW 03:43:56 69° NNE 04:00:45 10° E visible
25 Jan - 05:38:51 10° W 05:57:07 83° N 06:11:37 10° E daylight
25 Jan - 07:52:27 10° W 08:09:28 69° NNW 08:20:48 10° ENE daylight
25 Jan - 10:07:10 10° W 10:19:06 33° NW 10:27:09 10° NNE daylight
25 Jan - 23:33:03 10° NNE 23:40:16 16° NE 23:48:34 10° E visible
26 Jan - 01:35:57 10° NNW 01:49:49 46° NE 02:06:17 10° E visible
26 Jan - 03:44:54 10° WNW 04:01:57 75° NNE 04:18:48 10° E visible
26 Jan - 05:57:01 10° W 06:15:16 83° N 06:29:32 10° E daylight
26 Jan - 08:10:41 10° W 08:27:16 61° NNW 08:38:20 10° NE daylight
26 Jan - 10:26:06 10° W 10:36:17 25° NW 10:43:37 10° N daylight
26 Jan - 23:48:00 10° N 23:57:26 23° NE 00:09:00 10° E visible
27 Jan - 01:53:05 10° NW 02:07:27 55° NNE 02:24:36 10° E visible
27 Jan - 04:02:47 10° WNW 04:20:02 80° N 04:36:50 10° E visible
27 Jan - 06:15:10 10° W 06:33:23 80° N 06:47:25 10° ENE daylight
27 Jan - 08:28:58 10° W 08:44:54 52° NNW 08:55:40 10° NE daylight
27 Jan - 10:45:45 10° W 10:53:23 17° NW 10:59:22 10° NNW daylight
28 Jan - 00:03:59 10° NNW 00:14:39 30° NE 00:28:21 10° E visible
28 Jan - 02:10:27 10° NW 02:25:12 63° NNE 02:42:49 10° E visible
28 Jan - 04:20:46 10° W 04:38:12 83° N 04:54:53 10° E visible
28 Jan - 06:33:21 10° W 06:51:25 75° NNW 07:05:12 10° ENE daylight
28 Jan - 08:47:22 10° W 09:02:23 43° NW 09:12:48 10° NNE daylight
28 Jan - 11:07:43 10° WNW 11:10:24 11° NW 11:12:52 10° NW daylight
29 Jan - 00:20:31 10° NNW 00:31:57 39° NE 00:47:09 10° E visible
29 Jan - 02:28:01 10° WNW 02:43:04 71° NNE 03:00:57 10° E visible
29 Jan - 04:38:48 10° W 04:56:23 84° N 05:12:54 10° E visible
29 Jan - 06:51:30 10° W 07:09:21 68° NNW 07:22:52 10° ENE daylight
29 Jan - 09:05:59 10° W 09:19:44 34° NW 09:29:36 10° NNE daylight
29 Jan - 22:34:44 10° NNE 22:40:39 15° NE 22:47:43 10° E visible
30 Jan - 00:37:25 10° NW 00:49:23 47° NE 01:05:39 10° E visible
30 Jan - 02:45:46 10° WNW 03:01:05 77° NNE 03:19:04 10° E visible
30 Jan - 04:56:53 10° W 05:14:33 82° N 05:30:52 10° ENE visible
30 Jan - 07:09:42 10° W 07:27:10 60° NNW 07:40:22 10° NE daylight
30 Jan - 09:24:59 10° W 09:36:56 26° NW 09:45:58 10° N daylight
30 Jan - 22:49:50 10° N 22:57:43 22° NE 23:08:01 10° E visible
31 Jan - 00:54:38 10° NW 01:06:57 56° NNE 01:23:58 10° E visible
31 Jan - 03:03:37 10° WNW 03:19:10 81° N 03:37:11 10° E visible
31 Jan - 05:14:58 10° W 05:32:42 79° NNW 05:48:47 10° ENE daylight
31 Jan - 07:27:58 10° W 07:44:49 51° NNW 07:57:40 10° NE daylight
31 Jan - 09:44:43 10° W 09:54:03 19° NW 10:01:37 10° N daylight
31 Jan - 23:05:57 10° NNW 23:14:52 30° NE 23:27:17 10° E visible
01 Feb - 01:12:03 10° NW 01:24:41 65° NNE 01:42:13 10° E visible
01 Feb - 03:21:33 10° W 03:37:20 83° N 03:55:17 10° E visible
01 Feb - 05:33:04 10° W 05:50:44 73° NNW 06:06:34 10° ENE daylight
01 Feb - 07:46:22 10° W 08:02:20 43° NW 08:14:41 10° NNE daylight
01 Feb - 10:06:18 10° WNW 10:11:08 12° NW 10:15:29 10° NNW daylight
01 Feb - 23:22:36 10° NNW 23:32:07 38° NE 23:46:02 10° E visible
02 Feb - 01:29:39 10° WNW 01:42:33 72° NNE 02:00:24 10° E visible
02 Feb - 03:39:31 10° W 03:55:30 83° N 04:13:22 10° E visible
02 Feb - 05:51:10 10° W 06:08:41 66° NNW 06:24:13 10° NE daylight
02 Feb - 08:05:01 10° W 08:19:43 34° NW 08:31:24 10° NNE daylight
02 Feb - 21:37:15 10° NNE 21:41:32 13° NE 21:46:37 10° ENE visible
